Location: Lussas
(44.6119°N, 4.4726°E)
Time: 14:39:57
(UTC+00:00)

Cosmos 2227 Rocket - Pass Details

Date: 26 November 2020
Orbit: 837 x 847 km, 71.0° (Epoch: 26 January)

Event Time Altitude Azimuth Distance (km) Brightness Sun altitude
Exits shadow 04:41:16 13° 348° (NNW) 2,252 4.2 -23.0°
Drops below altitude 10° 04:42:17 10° 357° (N) 2,466 4.5 -22.8°
Sets 04:45:38 0° 17° (NNE) 3,406 5.5 -22.2°
